Year,Month,Day,Hour,Minute,Value (Times are PST for temperature in C)
2011,08,16,00,00,11.70
2011,08,16,00,01,11.70
2011,08,16,00,02,11.60
2011,08,16,00,03,11.60
2011,08,16,00,04,11.60
2011,08,16,00,05,11.60
2011,08,16,00,06,11.60
2011,08,16,00,07,11.50
2011,08,16,00,08,11.50
2011,08,16,00,09,11.50
2011,08,16,00,10,11.40
2011,08,16,00,11,11.40
2011,08,16,00,12,11.40
2011,08,16,00,17,11.30
2011,08,16,00,18,11.30
2011,08,16,00,19,11.20
2011,08,16,00,20,11.20
2011,08,16,00,21,11.20
2011,08,16,00,22,11.20
2011,08,16,00,23,11.20
2011,08,16,00,24,11.10
2011,08,16,00,25,11.10
2011,08,16,00,26,11.10
2011,08,16,00,27,11.10
2011,08,16,00,28,11.00
2011,08,16,00,29,11.00
2011,08,16,00,30,10.90
2011,08,16,00,31,10.90
2011,08,16,00,32,10.90
2011,08,16,00,33,10.80
2011,08,16,00,34,10.80
2011,08,16,00,35,10.80
2011,08,16,00,36,10.80
2011,08,16,00,37,10.80
2011,08,16,00,38,10.70
2011,08,16,00,39,10.70
2011,08,16,00,40,10.70
2011,08,16,00,41,10.60
2011,08,16,00,42,10.60
2011,08,16,00,43,10.60
2011,08,16,00,44,10.60
2011,08,16,00,45,10.60
2011,08,16,00,46,10.60
2011,08,16,00,47,10.60
2011,08,16,00,48,10.60
2011,08,16,00,49,10.60
2011,08,16,00,50,10.50
2011,08,16,00,51,10.50
2011,08,16,00,52,10.50
2011,08,16,00,53,10.50
2011,08,16,00,54,10.40
2011,08,16,00,55,10.40
2011,08,16,00,56,10.40
2011,08,16,00,57,10.40
2011,08,16,00,58,10.40
2011,08,16,00,59,10.40
2011,08,16,01,00,10.40
2011,08,16,01,01,10.30
2011,08,16,01,02,10.30
2011,08,16,01,03,10.30
2011,08,16,01,04,10.30
2011,08,16,01,05,10.30
2011,08,16,01,06,10.30
2011,08,16,01,07,10.30
2011,08,16,01,08,10.30
2011,08,16,01,09,10.20
2011,08,16,01,10,10.20
2011,08,16,01,11,10.20
2011,08,16,01,12,10.20
2011,08,16,01,13,10.20
2011,08,16,01,14,10.20
2011,08,16,01,15,10.20
2011,08,16,01,16,10.10
2011,08,16,01,17,10.10
2011,08,16,01,18,10.10
2011,08,16,01,19,10.10
2011,08,16,01,20,10.10
2011,08,16,01,21,10.10
2011,08,16,01,22,10.00
2011,08,16,01,23,10.00
2011,08,16,01,24,10.00
2011,08,16,01,25,9.90
2011,08,16,01,26,9.90
2011,08,16,01,27,9.90
2011,08,16,01,28,9.90
2011,08,16,01,29,9.90
2011,08,16,01,30,9.90
2011,08,16,01,31,9.80
2011,08,16,01,32,9.80
2011,08,16,01,33,9.80
2011,08,16,01,34,9.80
2011,08,16,01,35,9.80
2011,08,16,01,36,9.80
2011,08,16,01,37,9.80
2011,08,16,01,38,9.70
2011,08,16,01,39,9.70
2011,08,16,01,40,9.70
2011,08,16,01,41,9.70
2011,08,16,01,42,9.70
2011,08,16,01,43,9.70
2011,08,16,01,44,9.60
2011,08,16,01,45,9.60
2011,08,16,01,46,9.60
2011,08,16,01,47,9.60
2011,08,16,01,48,9.60
2011,08,16,01,49,9.60
2011,08,16,01,50,9.60
2011,08,16,01,51,9.50
2011,08,16,01,52,9.50
2011,08,16,01,53,9.50
2011,08,16,01,54,9.50
2011,08,16,01,55,9.50
2011,08,16,01,56,9.50
2011,08,16,01,57,9.50
2011,08,16,01,58,9.50
2011,08,16,01,59,9.50
2011,08,16,02,00,9.40
2011,08,16,02,01,9.40
2011,08,16,02,02,9.40
2011,08,16,02,03,9.40
2011,08,16,02,04,9.40
2011,08,16,02,05,9.40
2011,08,16,02,06,9.40
2011,08,16,02,07,9.40
2011,08,16,02,08,9.40
2011,08,16,02,09,9.40
2011,08,16,02,10,9.40
2011,08,16,02,11,9.40
2011,08,16,02,12,9.30
2011,08,16,02,13,9.30
2011,08,16,02,14,9.30
2011,08,16,02,15,9.30
2011,08,16,02,16,9.30
2011,08,16,02,17,9.30
2011,08,16,02,18,9.30
2011,08,16,02,19,9.30
2011,08,16,02,20,9.30
2011,08,16,02,21,9.30
2011,08,16,02,22,9.30
2011,08,16,02,23,9.20
2011,08,16,02,24,9.20
2011,08,16,02,25,9.20
2011,08,16,02,26,9.20
2011,08,16,02,27,9.20
2011,08,16,02,28,9.20
2011,08,16,02,29,9.20
2011,08,16,02,30,9.20
2011,08,16,02,31,9.20
2011,08,16,02,32,9.10
2011,08,16,02,33,9.10
2011,08,16,02,34,9.10
2011,08,16,02,35,9.10
2011,08,16,02,36,9.10
2011,08,16,02,37,9.10
2011,08,16,02,38,9.10
2011,08,16,02,39,9.10
2011,08,16,02,40,9.10
2011,08,16,02,41,9.10
2011,08,16,02,42,9.00
2011,08,16,02,43,9.00
2011,08,16,02,44,9.00
2011,08,16,02,45,9.00
2011,08,16,02,46,9.00
2011,08,16,02,47,9.00
2011,08,16,02,48,9.00
2011,08,16,02,49,9.00
2011,08,16,02,50,8.90
2011,08,16,02,51,8.90
2011,08,16,02,52,8.90
2011,08,16,02,53,8.90
2011,08,16,02,54,8.90
2011,08,16,02,55,8.90
2011,08,16,02,56,8.90
2011,08,16,02,57,8.90
2011,08,16,02,58,8.90
2011,08,16,02,59,8.90
2011,08,16,03,00,8.90
2011,08,16,03,01,8.80
2011,08,16,03,02,8.80
2011,08,16,03,03,8.80
2011,08,16,03,04,8.80
2011,08,16,03,05,8.80
2011,08,16,03,06,8.80
2011,08,16,03,07,8.70
2011,08,16,03,08,8.70
2011,08,16,03,09,8.70
2011,08,16,03,10,8.70
2011,08,16,03,11,8.70
2011,08,16,03,12,8.70
2011,08,16,03,13,8.70
2011,08,16,03,14,8.70
2011,08,16,03,15,8.70
2011,08,16,03,16,8.60
2011,08,16,03,17,8.60
2011,08,16,03,18,8.60
2011,08,16,03,19,8.60
2011,08,16,03,20,8.60
2011,08,16,03,21,8.60
2011,08,16,03,22,8.60
2011,08,16,03,23,8.60
2011,08,16,03,24,8.60
2011,08,16,03,25,8.60
2011,08,16,03,26,8.60
2011,08,16,03,27,8.60
2011,08,16,03,28,8.60
2011,08,16,03,29,8.60
2011,08,16,03,30,8.60
2011,08,16,03,31,8.50
2011,08,16,03,32,8.50
2011,08,16,03,33,8.50
2011,08,16,03,34,8.50
2011,08,16,03,35,8.50
2011,08,16,03,36,8.50
2011,08,16,03,37,8.40
2011,08,16,03,38,8.40
2011,08,16,03,39,8.40
2011,08,16,03,40,8.40
2011,08,16,03,41,8.40
2011,08,16,03,42,8.40
2011,08,16,03,43,8.40
2011,08,16,03,44,8.40
2011,08,16,03,45,8.30
2011,08,16,03,46,8.30
2011,08,16,03,47,8.30
2011,08,16,03,48,8.30
2011,08,16,03,49,8.30
2011,08,16,03,50,8.30
2011,08,16,03,51,8.20
2011,08,16,03,52,8.20
2011,08,16,03,53,8.20
2011,08,16,03,54,8.20
2011,08,16,03,55,8.20
2011,08,16,03,56,8.20
2011,08,16,03,57,8.20
2011,08,16,03,58,8.20
2011,08,16,03,59,8.20
2011,08,16,04,00,8.20
2011,08,16,04,01,8.20
2011,08,16,04,02,8.20
2011,08,16,04,03,8.20
2011,08,16,04,04,8.10
2011,08,16,04,05,8.10
2011,08,16,04,06,8.10
2011,08,16,04,07,8.10
2011,08,16,04,08,8.10
2011,08,16,04,09,8.10
2011,08,16,04,10,8.10
2011,08,16,04,11,8.10
2011,08,16,04,12,8.10
2011,08,16,04,13,8.10
2011,08,16,04,14,8.10
2011,08,16,04,15,8.10
2011,08,16,04,16,8.10
2011,08,16,04,17,8.10
2011,08,16,04,18,8.10
2011,08,16,04,19,8.10
2011,08,16,04,20,8.10
2011,08,16,04,21,8.10
2011,08,16,04,22,8.10
2011,08,16,04,23,8.10
2011,08,16,04,24,8.10
2011,08,16,04,25,8.10
2011,08,16,04,26,8.10
2011,08,16,04,27,8.10
2011,08,16,04,28,8.10
2011,08,16,04,29,8.10
2011,08,16,04,30,8.10
2011,08,16,04,31,8.00
2011,08,16,04,32,8.00
2011,08,16,04,33,8.00
2011,08,16,04,34,8.00
2011,08,16,04,35,7.90
2011,08,16,04,36,7.90
2011,08,16,04,37,7.90
2011,08,16,04,38,7.90
2011,08,16,04,39,7.90
2011,08,16,04,40,7.80
2011,08,16,04,41,7.80
2011,08,16,04,42,7.80
2011,08,16,04,43,7.80
2011,08,16,04,44,7.80
2011,08,16,04,45,7.80
2011,08,16,04,46,7.80
2011,08,16,04,47,7.70
2011,08,16,04,48,7.70
2011,08,16,04,49,7.70
2011,08,16,04,50,7.70
2011,08,16,04,51,7.70
2011,08,16,04,52,7.70
2011,08,16,04,53,7.70
2011,08,16,04,54,7.70
2011,08,16,04,55,7.70
2011,08,16,04,56,7.70
2011,08,16,04,57,7.70
2011,08,16,04,58,7.70
2011,08,16,04,59,7.70
2011,08,16,05,00,7.70
2011,08,16,05,01,7.70
2011,08,16,05,02,7.70
2011,08,16,05,03,7.70
2011,08,16,05,04,7.70
2011,08,16,05,05,7.70
2011,08,16,05,06,7.70
2011,08,16,05,07,7.70
2011,08,16,05,08,7.70
2011,08,16,05,09,7.70
2011,08,16,05,10,7.70
2011,08,16,05,11,7.70
2011,08,16,05,12,7.60
2011,08,16,05,13,7.60
2011,08,16,05,14,7.60
2011,08,16,05,15,7.60
2011,08,16,05,16,7.60
2011,08,16,05,17,7.60
2011,08,16,05,18,7.60
2011,08,16,05,19,7.70
2011,08,16,05,20,7.70
2011,08,16,05,21,7.70
2011,08,16,05,22,7.70
2011,08,16,05,23,7.70
2011,08,16,05,24,7.70
2011,08,16,05,25,7.70
2011,08,16,05,26,7.70
2011,08,16,05,27,7.70
2011,08,16,05,28,7.70
2011,08,16,05,29,7.70
2011,08,16,05,30,7.70
2011,08,16,05,31,7.70
2011,08,16,05,32,7.70
2011,08,16,05,33,7.70
2011,08,16,05,34,7.70
2011,08,16,05,35,7.70
2011,08,16,05,36,7.70
2011,08,16,05,37,7.70
2011,08,16,05,38,7.70
2011,08,16,05,39,7.70
2011,08,16,05,40,7.70
2011,08,16,05,41,7.70
2011,08,16,05,42,7.70
2011,08,16,05,43,7.70
2011,08,16,05,44,7.70
2011,08,16,05,45,7.70
2011,08,16,05,46,7.70
2011,08,16,05,47,7.70
2011,08,16,05,48,7.70
2011,08,16,05,49,7.70
2011,08,16,05,50,7.70
2011,08,16,05,51,7.70
2011,08,16,05,52,7.70
2011,08,16,05,53,7.80
2011,08,16,05,54,7.80
2011,08,16,05,55,7.80
2011,08,16,05,56,7.80
2011,08,16,05,57,7.80
2011,08,16,05,58,7.80
2011,08,16,05,59,7.70
2011,08,16,06,00,7.70
2011,08,16,06,01,7.70
2011,08,16,06,02,7.70
2011,08,16,06,03,7.70
2011,08,16,06,04,7.70
2011,08,16,06,05,7.70
2011,08,16,06,06,7.60
2011,08,16,06,07,7.60
2011,08,16,06,08,7.60
2011,08,16,06,09,7.60
2011,08,16,06,10,7.60
2011,08,16,06,11,7.50
2011,08,16,06,12,7.50
2011,08,16,06,13,7.50
2011,08,16,06,14,7.50
2011,08,16,06,15,7.50
2011,08,16,06,16,7.50
2011,08,16,06,17,7.40
2011,08,16,06,18,7.40
2011,08,16,06,19,7.40
2011,08,16,06,20,7.40
2011,08,16,06,21,7.50
2011,08,16,06,22,7.50
2011,08,16,06,23,7.50
2011,08,16,06,24,7.50
2011,08,16,06,25,7.60
2011,08,16,06,26,7.60
2011,08,16,06,27,7.60
2011,08,16,06,28,7.60
2011,08,16,06,29,7.60
2011,08,16,06,30,7.50
2011,08,16,06,31,7.50
2011,08,16,06,32,7.50
2011,08,16,06,33,7.50
2011,08,16,06,34,7.50
2011,08,16,06,35,7.50
2011,08,16,06,36,7.50
2011,08,16,06,37,7.50
2011,08,16,06,38,7.50
2011,08,16,06,39,7.50
2011,08,16,06,40,7.60
2011,08,16,06,41,7.60
2011,08,16,06,42,7.60
2011,08,16,06,43,7.60
2011,08,16,06,44,7.60
2011,08,16,06,45,7.60
2011,08,16,06,46,7.60
2011,08,16,06,47,7.60
2011,08,16,06,48,7.60
2011,08,16,06,49,7.60
2011,08,16,06,50,7.60
2011,08,16,06,51,7.60
2011,08,16,06,52,7.50
2011,08,16,06,53,7.50
2011,08,16,06,54,7.50
2011,08,16,06,55,7.50
2011,08,16,06,56,7.50
2011,08,16,06,57,7.50
2011,08,16,06,58,7.50
2011,08,16,06,59,7.50
2011,08,16,07,00,7.50
2011,08,16,07,01,7.50
2011,08,16,07,02,7.40
2011,08,16,07,03,7.40
2011,08,16,07,04,7.40
2011,08,16,07,05,7.40
2011,08,16,07,06,7.40
2011,08,16,07,07,7.40
2011,08,16,07,08,7.40
2011,08,16,07,09,7.40
2011,08,16,07,10,7.40
2011,08,16,07,11,7.40
2011,08,16,07,12,7.40
2011,08,16,07,13,7.40
2011,08,16,07,14,7.40
2011,08,16,07,15,7.40
2011,08,16,07,16,7.40
2011,08,16,07,17,7.40
2011,08,16,07,18,7.40
2011,08,16,07,19,7.40
2011,08,16,07,20,7.40
2011,08,16,07,21,7.50
2011,08,16,07,22,7.50
2011,08,16,07,23,7.60
2011,08,16,07,24,7.60
2011,08,16,07,25,7.60
2011,08,16,07,26,7.60
2011,08,16,07,27,7.60
2011,08,16,07,28,7.70
2011,08,16,07,29,7.70
2011,08,16,07,30,7.80
2011,08,16,07,31,7.80
2011,08,16,07,32,7.80
2011,08,16,07,33,7.90
2011,08,16,07,34,7.90
2011,08,16,07,35,7.90
2011,08,16,07,36,8.00
2011,08,16,07,37,8.00
2011,08,16,07,38,8.00
2011,08,16,07,39,8.10
2011,08,16,07,40,8.10
2011,08,16,07,41,8.20
2011,08,16,07,42,8.20
2011,08,16,07,43,8.20
2011,08,16,07,44,8.30
2011,08,16,07,45,8.30
2011,08,16,07,46,8.30
2011,08,16,07,47,8.40
2011,08,16,07,48,8.40
2011,08,16,07,49,8.50
2011,08,16,07,50,8.60
2011,08,16,07,51,8.60
2011,08,16,07,52,8.70
2011,08,16,07,53,8.80
2011,08,16,07,54,8.80
2011,08,16,07,55,8.90
2011,08,16,07,56,9.00
2011,08,16,07,57,9.00
2011,08,16,07,58,9.10
2011,08,16,07,59,9.20
2011,08,16,08,00,9.30
2011,08,16,08,01,9.30
2011,08,16,08,02,9.40
2011,08,16,08,03,9.40
2011,08,16,08,04,9.50
2011,08,16,08,05,9.60
2011,08,16,08,06,9.70
2011,08,16,08,07,9.80
2011,08,16,08,08,9.80
2011,08,16,08,09,9.90
2011,08,16,08,10,9.90
2011,08,16,08,11,10.00
2011,08,16,08,12,10.10
2011,08,16,08,13,10.20
2011,08,16,08,14,10.20
2011,08,16,08,15,10.30
2011,08,16,08,16,10.40
2011,08,16,08,17,10.40
2011,08,16,08,18,10.50
2011,08,16,08,19,10.60
2011,08,16,08,20,10.60
2011,08,16,08,21,10.70
2011,08,16,08,22,10.80
2011,08,16,08,23,10.80
2011,08,16,08,24,10.90
2011,08,16,08,25,10.90
2011,08,16,08,26,11.00
2011,08,16,08,27,11.10
2011,08,16,08,28,11.20
2011,08,16,08,29,11.30
2011,08,16,08,30,11.40
2011,08,16,08,31,11.50
2011,08,16,08,32,11.50
2011,08,16,08,33,11.60
2011,08,16,08,34,11.70
2011,08,16,08,35,11.70
2011,08,16,08,36,11.80
2011,08,16,08,37,11.90
2011,08,16,08,38,11.90
2011,08,16,08,39,12.10
2011,08,16,08,40,12.10
2011,08,16,08,41,12.20
2011,08,16,08,42,12.20
2011,08,16,08,43,12.30
2011,08,16,08,44,12.30
2011,08,16,08,45,12.30
2011,08,16,08,46,12.30
2011,08,16,08,47,12.30
2011,08,16,08,48,12.20
2011,08,16,08,49,12.20
2011,08,16,08,50,12.20
2011,08,16,08,51,12.20
2011,08,16,08,52,12.20
2011,08,16,08,53,12.20
2011,08,16,08,54,12.20
2011,08,16,08,55,12.20
2011,08,16,08,56,12.20
2011,08,16,08,57,12.20
2011,08,16,08,58,12.20
2011,08,16,08,59,12.20
2011,08,16,09,00,12.20
2011,08,16,09,01,12.20
2011,08,16,09,02,12.20
2011,08,16,09,03,12.20
2011,08,16,09,04,12.10
2011,08,16,09,05,12.10
2011,08,16,09,06,12.10
2011,08,16,09,07,12.10
2011,08,16,09,08,12.00
2011,08,16,09,09,12.00
2011,08,16,09,10,12.00
2011,08,16,09,11,12.00
2011,08,16,09,12,12.00
2011,08,16,09,13,12.00
2011,08,16,09,14,11.90
2011,08,16,09,15,11.90
2011,08,16,09,16,11.90
2011,08,16,09,17,11.80
2011,08,16,09,18,11.80
2011,08,16,09,19,11.80
2011,08,16,09,20,11.90
2011,08,16,09,21,11.90
2011,08,16,09,22,11.90
2011,08,16,09,23,12.00
2011,08,16,09,24,12.10
2011,08,16,09,25,12.10
2011,08,16,09,26,12.20
2011,08,16,09,27,12.30
2011,08,16,09,28,12.30
2011,08,16,09,29,12.30
2011,08,16,09,30,12.30
2011,08,16,09,31,12.30
2011,08,16,09,32,12.30
2011,08,16,09,33,12.30
2011,08,16,09,34,12.30
2011,08,16,09,35,12.30
2011,08,16,09,36,12.30
2011,08,16,09,37,12.30
2011,08,16,09,38,12.30
2011,08,16,09,39,12.30
2011,08,16,09,40,12.30
2011,08,16,09,41,12.40
2011,08,16,09,42,12.40
2011,08,16,09,43,12.50
2011,08,16,09,44,12.50
2011,08,16,09,45,12.50
2011,08,16,09,46,12.50
2011,08,16,09,47,12.50
2011,08,16,09,48,12.60
2011,08,16,09,49,12.60
2011,08,16,09,50,12.60
2011,08,16,09,51,12.70
2011,08,16,09,52,12.70
2011,08,16,09,53,12.80
2011,08,16,09,54,12.90
2011,08,16,09,55,12.90
2011,08,16,09,56,13.00
2011,08,16,09,57,13.00
2011,08,16,09,58,13.00
2011,08,16,09,59,13.00
2011,08,16,10,00,13.10
2011,08,16,10,01,13.10
2011,08,16,10,02,13.10
2011,08,16,10,03,13.10
2011,08,16,10,04,13.10
2011,08,16,10,05,13.10
2011,08,16,10,06,13.20
2011,08,16,10,07,13.20
2011,08,16,10,08,13.20
2011,08,16,10,09,13.20
2011,08,16,10,10,13.30
2011,08,16,10,11,13.30
2011,08,16,10,12,13.30
2011,08,16,10,13,13.40
2011,08,16,10,14,13.40
2011,08,16,10,15,13.40
2011,08,16,10,16,13.40
2011,08,16,10,17,13.40
2011,08,16,10,18,13.30
2011,08,16,10,19,13.30
2011,08,16,10,20,13.30
2011,08,16,10,21,13.20
2011,08,16,10,22,13.20
2011,08,16,10,23,13.20
2011,08,16,10,24,13.10
2011,08,16,10,25,13.10
2011,08,16,10,26,13.10
2011,08,16,10,27,13.10
2011,08,16,10,28,13.20
2011,08,16,10,29,13.20
2011,08,16,10,30,13.20
2011,08,16,10,31,13.10
2011,08,16,10,32,13.10
2011,08,16,10,33,13.00
2011,08,16,10,34,13.00
2011,08,16,10,35,13.00
2011,08,16,10,36,12.90
2011,08,16,10,37,12.90
2011,08,16,10,38,13.00
2011,08,16,10,39,13.00
2011,08,16,10,40,13.00
2011,08,16,10,41,13.00
2011,08,16,10,42,13.00
2011,08,16,10,43,13.00
2011,08,16,10,44,13.00
2011,08,16,10,45,13.10
2011,08,16,10,46,13.20
2011,08,16,10,47,13.30
2011,08,16,10,48,13.30
2011,08,16,10,49,13.30
2011,08,16,10,50,13.30
2011,08,16,10,51,13.30
2011,08,16,10,52,13.40
2011,08,16,10,53,13.40
2011,08,16,10,54,13.40
2011,08,16,10,55,13.50
2011,08,16,10,56,13.60
2011,08,16,10,57,13.60
2011,08,16,10,58,13.70
2011,08,16,10,59,13.70
2011,08,16,11,00,13.80
2011,08,16,11,01,13.80
2011,08,16,11,02,13.70
2011,08,16,11,03,13.70
2011,08,16,11,04,13.70
2011,08,16,11,05,13.70
2011,08,16,11,06,13.70
2011,08,16,11,07,13.70
2011,08,16,11,08,13.70
2011,08,16,11,09,13.80
2011,08,16,11,10,13.80
2011,08,16,11,11,13.80
2011,08,16,11,12,13.80
2011,08,16,11,13,13.80
2011,08,16,11,14,13.80
2011,08,16,11,15,13.80
2011,08,16,11,16,13.80
2011,08,16,11,17,13.80
2011,08,16,11,18,13.80
2011,08,16,11,19,13.80
2011,08,16,11,20,13.80
2011,08,16,11,21,13.80
2011,08,16,11,22,13.80
2011,08,16,11,23,13.80
2011,08,16,11,24,13.90
2011,08,16,11,25,14.00
2011,08,16,11,26,14.00
2011,08,16,11,27,14.10
2011,08,16,11,28,14.20
2011,08,16,11,29,14.30
2011,08,16,11,30,14.30
2011,08,16,11,31,14.30
2011,08,16,11,32,14.40
2011,08,16,11,33,14.50
2011,08,16,11,34,14.50
2011,08,16,11,35,14.60
2011,08,16,11,36,14.70
2011,08,16,11,37,14.70
2011,08,16,11,38,14.80
2011,08,16,11,39,14.80
2011,08,16,11,40,14.80
2011,08,16,11,41,14.90
2011,08,16,11,42,14.90
2011,08,16,11,43,14.90
2011,08,16,11,44,14.90
2011,08,16,11,45,14.90
2011,08,16,11,46,14.90
2011,08,16,11,47,14.90
2011,08,16,11,48,14.90
2011,08,16,11,49,14.80
2011,08,16,11,50,14.80
2011,08,16,11,51,14.80
2011,08,16,11,52,14.80
2011,08,16,11,53,14.90
2011,08,16,11,54,14.90
2011,08,16,11,55,14.90
2011,08,16,11,56,15.00
2011,08,16,11,57,15.00
2011,08,16,11,58,15.00
2011,08,16,11,59,15.00
2011,08,16,12,00,14.90
2011,08,16,12,01,14.90
2011,08,16,12,02,14.90
2011,08,16,12,03,14.80
2011,08,16,12,04,14.80
2011,08,16,12,05,14.80
2011,08,16,12,06,14.70
2011,08,16,12,07,14.70
2011,08,16,12,08,14.60
2011,08,16,12,09,14.60
2011,08,16,12,10,14.50
2011,08,16,12,11,14.50
2011,08,16,12,12,14.40
2011,08,16,12,13,14.30
2011,08,16,12,14,14.30
2011,08,16,12,15,14.20
2011,08,16,12,16,14.20
2011,08,16,12,17,14.20
2011,08,16,12,18,14.20
2011,08,16,12,19,14.20
2011,08,16,12,20,14.20
2011,08,16,12,21,14.30
2011,08,16,12,22,14.30
2011,08,16,12,23,14.40
2011,08,16,12,24,14.40
2011,08,16,12,25,14.50
2011,08,16,12,26,14.50
2011,08,16,12,27,14.50
2011,08,16,12,28,14.50
2011,08,16,12,29,14.50
2011,08,16,12,30,14.50
2011,08,16,12,31,14.60
2011,08,16,12,32,14.60
2011,08,16,12,33,14.60
2011,08,16,12,34,14.60
2011,08,16,12,35,14.60
2011,08,16,12,36,14.50
2011,08,16,12,37,14.50
2011,08,16,12,38,14.50
2011,08,16,12,39,14.40
2011,08,16,12,40,14.40
2011,08,16,12,41,14.40
2011,08,16,12,42,14.40
2011,08,16,12,43,14.50
2011,08,16,12,44,14.50
2011,08,16,12,45,14.50
2011,08,16,12,46,14.60
2011,08,16,12,47,14.60
2011,08,16,12,48,14.60
2011,08,16,12,49,14.70
2011,08,16,12,50,14.70
2011,08,16,12,51,14.60
2011,08,16,12,52,14.60
2011,08,16,12,53,14.60
2011,08,16,12,54,14.60
2011,08,16,12,55,14.60
2011,08,16,12,56,14.60
2011,08,16,12,57,14.60
2011,08,16,12,58,14.60
2011,08,16,12,59,14.70
2011,08,16,13,00,14.70
2011,08,16,13,01,14.70
2011,08,16,13,02,14.80
2011,08,16,13,03,14.70
2011,08,16,13,04,14.70
2011,08,16,13,05,14.70
2011,08,16,13,06,14.60
2011,08,16,13,07,14.60
2011,08,16,13,08,14.60
2011,08,16,13,09,14.60
2011,08,16,13,10,14.60
2011,08,16,13,11,14.50
2011,08,16,13,12,14.50
2011,08,16,13,13,14.50
2011,08,16,13,14,14.50
2011,08,16,13,15,14.40
2011,08,16,13,16,14.50
2011,08,16,13,17,14.50
2011,08,16,13,18,14.60
2011,08,16,13,19,14.60
2011,08,16,13,20,14.70
2011,08,16,13,21,14.80
2011,08,16,13,22,14.90
2011,08,16,13,23,15.00
2011,08,16,13,24,15.10
2011,08,16,13,25,15.10
2011,08,16,13,26,15.20
2011,08,16,13,27,15.30
2011,08,16,13,28,15.30
2011,08,16,13,29,15.30
2011,08,16,13,30,15.30
2011,08,16,13,31,15.30
2011,08,16,13,32,15.20
2011,08,16,13,33,15.20
2011,08,16,13,34,15.10
2011,08,16,13,35,15.10
2011,08,16,13,36,15.20
2011,08,16,13,37,15.20
2011,08,16,13,38,15.20
2011,08,16,13,39,15.30
2011,08,16,13,40,15.30
2011,08,16,13,41,15.30
2011,08,16,13,42,15.40
2011,08,16,13,43,15.40
2011,08,16,13,44,15.50
2011,08,16,13,45,15.60
2011,08,16,13,46,15.70
2011,08,16,13,47,15.70
2011,08,16,13,48,15.80
2011,08,16,13,49,15.80
2011,08,16,13,50,15.80
2011,08,16,13,51,15.90
2011,08,16,13,52,15.90
2011,08,16,13,53,16.00
2011,08,16,13,54,16.10
2011,08,16,13,55,16.10
2011,08,16,13,56,16.10
2011,08,16,13,57,16.20
2011,08,16,13,58,16.20
2011,08,16,13,59,16.30
2011,08,16,14,00,16.30
2011,08,16,14,01,16.30
2011,08,16,14,02,16.30
2011,08,16,14,03,16.30
2011,08,16,14,04,16.40
2011,08,16,14,05,16.40
2011,08,16,14,06,16.40
2011,08,16,14,07,16.40
2011,08,16,14,08,16.40
2011,08,16,14,09,16.40
2011,08,16,14,10,16.50
2011,08,16,14,11,16.50
2011,08,16,14,12,16.60
2011,08,16,14,13,16.50
2011,08,16,14,14,16.50
2011,08,16,14,15,16.50
2011,08,16,14,16,16.60
2011,08,16,14,17,16.60
2011,08,16,14,18,16.60
2011,08,16,14,19,16.70
2011,08,16,14,20,16.70
2011,08,16,14,21,16.80
2011,08,16,14,22,16.80
2011,08,16,14,23,17.00
2011,08,16,14,24,17.00
2011,08,16,14,25,17.10
2011,08,16,14,26,17.20
2011,08,16,14,27,17.30
2011,08,16,14,28,17.30
2011,08,16,14,29,17.40
2011,08,16,14,30,17.40
2011,08,16,14,31,17.50
2011,08,16,14,32,17.60
2011,08,16,14,33,17.70
2011,08,16,14,34,17.80
2011,08,16,14,35,17.90
2011,08,16,14,36,18.00
2011,08,16,14,37,18.10
2011,08,16,14,38,18.20
2011,08,16,14,39,18.20
2011,08,16,14,40,18.10
2011,08,16,14,41,18.10
2011,08,16,14,42,18.10
2011,08,16,14,43,18.10
2011,08,16,14,44,18.10
2011,08,16,14,45,18.10
2011,08,16,14,46,18.10
2011,08,16,14,47,18.10
2011,08,16,14,48,18.10
2011,08,16,14,49,18.10
2011,08,16,14,50,18.10
2011,08,16,14,51,18.20
2011,08,16,14,52,18.30
2011,08,16,14,53,18.40
2011,08,16,14,54,18.50
2011,08,16,14,55,18.60
2011,08,16,14,56,18.70
2011,08,16,14,57,18.80
2011,08,16,14,58,19.00
2011,08,16,14,59,19.20
2011,08,16,15,00,19.30
2011,08,16,15,01,19.40
2011,08,16,15,02,19.50
2011,08,16,15,03,19.60
2011,08,16,15,04,19.70
2011,08,16,15,05,19.70
2011,08,16,15,06,19.70
2011,08,16,15,07,19.80
2011,08,16,15,08,19.90
2011,08,16,15,09,19.90
2011,08,16,15,10,20.00
2011,08,16,15,11,20.10
2011,08,16,15,12,20.10
2011,08,16,15,13,20.10
2011,08,16,15,14,20.20
2011,08,16,15,15,20.20
2011,08,16,15,16,20.10
2011,08,16,15,17,20.00
2011,08,16,15,18,19.90
2011,08,16,15,19,19.80
2011,08,16,15,20,19.70
2011,08,16,15,21,19.60
2011,08,16,15,22,19.60
2011,08,16,15,23,19.50
2011,08,16,15,24,19.40
2011,08,16,15,25,19.40
2011,08,16,15,26,19.30
2011,08,16,15,27,19.30
2011,08,16,15,28,19.20
2011,08,16,15,29,19.10
2011,08,16,15,30,18.90
2011,08,16,15,31,18.80
2011,08,16,15,32,18.50
2011,08,16,15,33,18.30
2011,08,16,15,34,18.20
2011,08,16,15,35,18.10
2011,08,16,15,36,18.00
2011,08,16,15,37,18.00
2011,08,16,15,38,18.00
2011,08,16,15,39,18.10
2011,08,16,15,40,18.00
2011,08,16,15,41,18.00
2011,08,16,15,42,17.90
2011,08,16,15,43,17.90
2011,08,16,15,44,17.80
2011,08,16,15,45,17.80
2011,08,16,15,46,17.70
2011,08,16,15,47,17.60
2011,08,16,15,48,17.80
2011,08,16,15,49,17.90
2011,08,16,15,50,18.10
2011,08,16,15,51,18.20
2011,08,16,15,52,18.20
2011,08,16,15,53,18.20
2011,08,16,15,54,18.10
2011,08,16,15,55,18.10
2011,08,16,15,56,18.20
2011,08,16,15,57,18.20
2011,08,16,15,58,18.20
2011,08,16,15,59,18.20
2011,08,16,16,00,18.10
2011,08,16,16,01,18.10
2011,08,16,16,02,18.10
2011,08,16,16,03,18.20
2011,08,16,16,04,18.20
2011,08,16,16,05,18.20
2011,08,16,16,06,18.30
2011,08,16,16,07,18.30
2011,08,16,16,08,18.30
2011,08,16,16,09,18.30
2011,08,16,16,10,18.50
2011,08,16,16,11,18.60
2011,08,16,16,12,18.60
2011,08,16,16,13,18.60
2011,08,16,16,14,18.50
2011,08,16,16,15,18.30
2011,08,16,16,16,18.20
2011,08,16,16,17,18.10
2011,08,16,16,18,18.00
2011,08,16,16,19,17.90
2011,08,16,16,20,17.90
2011,08,16,16,21,18.00
2011,08,16,16,22,18.20
2011,08,16,16,23,18.30
2011,08,16,16,24,18.40
2011,08,16,16,25,18.50
2011,08,16,16,26,18.60
2011,08,16,16,27,18.70
2011,08,16,16,28,18.70
2011,08,16,16,29,18.80
2011,08,16,16,30,18.90
2011,08,16,16,31,19.00
2011,08,16,16,32,18.90
2011,08,16,16,33,18.70
2011,08,16,16,34,18.50
2011,08,16,16,35,18.30
2011,08,16,16,36,18.20
2011,08,16,16,37,18.10
2011,08,16,16,38,17.90
2011,08,16,16,39,17.70
2011,08,16,16,40,17.60
2011,08,16,16,41,17.40
2011,08,16,16,42,17.20
2011,08,16,16,43,17.00
2011,08,16,16,44,16.90
2011,08,16,16,45,16.60
2011,08,16,16,46,16.50
2011,08,16,16,47,16.40
2011,08,16,16,48,16.30
2011,08,16,16,49,16.20
2011,08,16,16,50,16.20
2011,08,16,16,51,16.20
2011,08,16,16,52,16.30
2011,08,16,16,53,16.30
2011,08,16,16,54,16.40
2011,08,16,16,55,16.50
2011,08,16,16,56,16.60
2011,08,16,16,57,16.70
2011,08,16,16,58,16.80
2011,08,16,16,59,17.00
2011,08,16,17,00,17.20
2011,08,16,17,01,17.30
2011,08,16,17,02,17.50
2011,08,16,17,03,17.60
2011,08,16,17,04,17.70
2011,08,16,17,05,17.80
2011,08,16,17,06,17.90
2011,08,16,17,07,18.00
2011,08,16,17,08,18.00
2011,08,16,17,09,18.10
2011,08,16,17,10,18.10
2011,08,16,17,11,18.00
2011,08,16,17,12,18.00
2011,08,16,17,13,18.10
2011,08,16,17,14,18.00
2011,08,16,17,15,17.90
2011,08,16,17,16,17.90
2011,08,16,17,17,17.80
2011,08,16,17,18,17.80
2011,08,16,17,19,17.80
2011,08,16,17,20,17.80
2011,08,16,17,21,17.70
2011,08,16,17,22,17.60
2011,08,16,17,23,17.50
2011,08,16,17,24,17.30
2011,08,16,17,25,17.10
2011,08,16,17,26,16.90
2011,08,16,17,27,16.80
2011,08,16,17,28,16.70
2011,08,16,17,29,16.70
2011,08,16,17,30,16.70
2011,08,16,17,31,16.60
2011,08,16,17,32,16.60
2011,08,16,17,33,16.60
2011,08,16,17,34,16.50
2011,08,16,17,35,16.40
2011,08,16,17,36,16.40
2011,08,16,17,37,16.50
2011,08,16,17,38,16.50
2011,08,16,17,39,16.50
2011,08,16,17,40,16.60
2011,08,16,17,41,16.60